When you browse on this site, cookies collect data to enhance your experience and personalize the content and advertising you see.
Visit our Privacy Policy to learn more. By continuing to use the site, you agree to this use of cookies and data.
  • In Italy
  • List of Countries
  • For 7 days
  • Water Temperature
  • Satellite Maps
  • Weather Map
  • Weather Widgets
  • user-avatar
    Login

    Hourly Weather Abano Terme

    Today, 17 December, Monday

    Time Temperature Precipitation Wind Pressure Humidity
    00:00 +2°C° 0.2 mm 3 mps 762 mmHg 63%
    01:00 +2°C° 0 mm 3 mps 762 mmHg 63%
    02:00 +2°C° 0.1 mm 3 mps 762 mmHg 63%
    03:00 +2°C° 0.1 mm 3 mps 762 mmHg 63%
    04:00 +3°C° 0.1 mm 2 mps 761 mmHg 62%
    05:00 +3°C° 0.1 mm 2 mps 762 mmHg 62%
    06:00 +3°C° 0.1 mm 2 mps 762 mmHg 61%
    07:00 +3°C° 0 mm 2 mps 762 mmHg 62%
    08:00 +4°C° 0.1 mm 2 mps 763 mmHg 61%
    09:00 +4°C° 0.1 mm 2 mps 763 mmHg 60%
    10:00 +5°C° 0.1 mm 2 mps 763 mmHg 59%
    11:00 +6°C° 0 mm 2 mps 763 mmHg 57%
    12:00 +7°C° 0 mm 2 mps 763 mmHg 55%
    13:00 +7°C° 0 mm 2 mps 763 mmHg 53%
    14:00 +7°C° 0 mm 2 mps 764 mmHg 57%
    15:00 +6°C° 0 mm 2 mps 764 mmHg 60%
    16:00 +6°C° 0 mm 2 mps 765 mmHg 64%
    17:00 +5°C° 0 mm 2 mps 766 mmHg 67%
    18:00 +4°C° 0 mm 2 mps 766 mmHg 69%
    19:00 +4°C° 0 mm 2 mps 767 mmHg 71%
    20:00 +4°C° 0 mm 2 mps 768 mmHg 71%
    21:00 +4°C° 0 mm 2 mps 769 mmHg 71%
    22:00 +3°C° 0 mm 2 mps 769 mmHg 70%
    23:00 +4°C° 0 mm 1 mps 770 mmHg 70%

    Tomorrow, 18 December, Tuesday

    Time Temperature Precipitation Wind Pressure Humidity
    00:00 +4°C° 0 mm 1 mps 770 mmHg 70%
    01:00 +4°C° 0 mm 1 mps 770 mmHg 70%
    02:00 +4°C° 0 mm 1 mps 770 mmHg 71%
    03:00 +4°C° 0 mm 1 mps 770 mmHg 71%
    04:00 +3°C° 0 mm 1 mps 770 mmHg 71%
    05:00 +3°C° 0 mm 1 mps 770 mmHg 71%
    06:00 +3°C° 0 mm 1 mps 771 mmHg 71%
    07:00 +3°C° 0 mm 1 mps 771 mmHg 71%
    08:00 +4°C° 0 mm 1 mps 771 mmHg 68%
    09:00 +5°C° 0 mm 1 mps 771 mmHg 65%
    10:00 +6°C° 0 mm 1 mps 771 mmHg 61%
    11:00 +7°C° 0 mm 1 mps 771 mmHg 59%
    12:00 +8°C° 0 mm 1 mps 770 mmHg 56%
    13:00 +8°C° 0 mm 1 mps 770 mmHg 54%
    14:00 +8°C° 0 mm 1 mps 770 mmHg 58%
    15:00 +6°C° 0 mm 0 mps 770 mmHg 62%
    16:00 +6°C° 0 mm 0 mps 770 mmHg 66%
    17:00 +6°C° 0 mm 1 mps 770 mmHg 68%
    18:00 +5°C° 0 mm 1 mps 770 mmHg 70%
    19:00 +5°C° 0 mm 1 mps 769 mmHg 72%
    20:00 +5°C° 0 mm 1 mps 769 mmHg 72%
    21:00 +4°C° 0 mm 1 mps 769 mmHg 73%
    22:00 +4°C° 0 mm 1 mps 769 mmHg 74%
    23:00 +4°C° 0 mm 1 mps 769 mmHg 75%

    Day after tomorrow, 19 December, Wednesday

    Time Temperature Precipitation Wind Pressure Humidity
    00:00 +4°C° 0 mm 1 mps 769 mmHg 75%
    01:00 +3°C° 0 mm 1 mps 769 mmHg 76%
    02:00 +3°C° 0 mm 1 mps 768 mmHg 76%
    03:00 +3°C° 0 mm 1 mps 768 mmHg 76%
    04:00 +3°C° 0 mm 1 mps 768 mmHg 76%
    05:00 +3°C° 0 mm 1 mps 768 mmHg 76%
    06:00 +3°C° 0 mm 1 mps 767 mmHg 76%
    07:00 +3°C° 0 mm 1 mps 767 mmHg 76%
    08:00 +4°C° 0 mm 1 mps 767 mmHg 73%
    09:00 +5°C° 0 mm 1 mps 768 mmHg 71%
    10:00 +5°C° 0 mm 1 mps 768 mmHg 68%
    11:00 +6°C° 0 mm 1 mps 767 mmHg 67%
    12:00 +7°C° 0 mm 1 mps 767 mmHg 65%
    13:00 +7°C° 0 mm 1 mps 766 mmHg 64%
    14:00 +7°C° 0 mm 1 mps 766 mmHg 68%
    15:00 +7°C° 0 mm 1 mps 766 mmHg 71%
    16:00 +6°C° 0 mm 1 mps 766 mmHg 74%
    17:00 +6°C° 0.1 mm 1 mps 766 mmHg 76%
    18:00 +5°C° 0.1 mm 2 mps 766 mmHg 77%
    19:00 +5°C° 0.1 mm 2 mps 766 mmHg 78%
    20:00 +5°C° 0.1 mm 2 mps 766 mmHg 78%
    21:00 +4°C° 0.1 mm 3 mps 766 mmHg 78%
    22:00 +4°C° 0.1 mm 3 mps 765 mmHg 78%
    23:00 +4°C° 0.1 mm 3 mps 765 mmHg 78%

    20 December, Thursday

    Time Temperature Precipitation Wind Pressure Humidity
    00:00 +4°C° 0.1 mm 3 mps 765 mmHg 79%
    01:00 +4°C° 0.1 mm 3 mps 765 mmHg 79%
    02:00 +4°C° 0.5 mm 4 mps 764 mmHg 81%
    03:00 +4°C° 0.5 mm 4 mps 764 mmHg 82%
    04:00 +4°C° 0.5 mm 4 mps 763 mmHg 84%
    05:00 +5°C° 1.4 mm 4 mps 763 mmHg 86%
    06:00 +5°C° 1.4 mm 4 mps 763 mmHg 87%
    07:00 +5°C° 1.4 mm 4 mps 762 mmHg 89%
    08:00 +5°C° 1.9 mm 3 mps 762 mmHg 90%
    09:00 +5°C° 1.9 mm 3 mps 762 mmHg 91%
    10:00 +5°C° 1.9 mm 3 mps 762 mmHg 91%
    11:00 +5°C° 1 mm 3 mps 762 mmHg 90%
    12:00 +7°C° 1 mm 3 mps 762 mmHg 89%
    13:00 +7°C° 1 mm 3 mps 761 mmHg 88%
    14:00 +7°C° 0.3 mm 3 mps 762 mmHg 87%
    15:00 +7°C° 0.3 mm 3 mps 762 mmHg 87%
    16:00 +7°C° 0.3 mm 3 mps 762 mmHg 87%
    17:00 +5°C° 0.1 mm 3 mps 763 mmHg 87%
    18:00 +5°C° 0.1 mm 3 mps 764 mmHg 87%
    19:00 +4°C° 0.1 mm 3 mps 764 mmHg 88%
    20:00 +4°C° 0 mm 3 mps 765 mmHg 86%
    21:00 +4°C° 0 mm 3 mps 766 mmHg 85%
    22:00 +5°C° 0 mm 2 mps 766 mmHg 84%
    23:00 +4°C° 0 mm 2 mps 767 mmHg 83%

    21 December, Friday

    Time Temperature Precipitation Wind Pressure Humidity
    00:00 +4°C° 0 mm 2 mps 767 mmHg 82%
    01:00 +4°C° 0 mm 2 mps 767 mmHg 82%
    02:00 +4°C° 0 mm 2 mps 767 mmHg 81%
    03:00 +5°C° 0 mm 1 mps 768 mmHg 81%
    04:00 +4°C° 0 mm 1 mps 768 mmHg 81%
    05:00 +4°C° 0 mm 1 mps 768 mmHg 81%
    06:00 +4°C° 0 mm 1 mps 768 mmHg 80%
    07:00 +4°C° 0 mm 1 mps 768 mmHg 80%
    08:00 +5°C° 0 mm 1 mps 769 mmHg 78%
    09:00 +6°C° 0 mm 1 mps 769 mmHg 76%
    10:00 +6°C° 0 mm 1 mps 769 mmHg 74%
    11:00 +7°C° 0 mm 1 mps 768 mmHg 72%
    12:00 +8°C° 0 mm 1 mps 768 mmHg 70%
    13:00 +8°C° 0 mm 1 mps 767 mmHg 68%
    14:00 +8°C° 0 mm 1 mps 767 mmHg 71%
    15:00 +8°C° 0 mm 1 mps 767 mmHg 74%
    16:00 +7°C° 0 mm 1 mps 767 mmHg 77%
    17:00 +7°C° 0 mm 1 mps 767 mmHg 78%
    18:00 +6°C° 0 mm 1 mps 767 mmHg 79%
    19:00 +6°C° 0 mm 1 mps 767 mmHg 80%
    20:00 +6°C° 0 mm 1 mps 767 mmHg 80%
    21:00 +5°C° 0 mm 1 mps 767 mmHg 80%
    22:00 +5°C° 0 mm 1 mps 767 mmHg 80%
    23:00 +5°C° 0 mm 1 mps 767 mmHg 80%

    22 December, Saturday

    Time Temperature Precipitation Wind Pressure Humidity
    00:00 +5°C° 0 mm 1 mps 767 mmHg 80%
    01:00 +5°C° 0 mm 1 mps 767 mmHg 80%
    02:00 +5°C° 0 mm 1 mps 767 mmHg 80%
    03:00 +5°C° 0 mm 1 mps 767 mmHg 80%
    04:00 +5°C° 0 mm 1 mps 767 mmHg 80%
    05:00 +5°C° 0 mm 1 mps 767 mmHg 80%
    06:00 +5°C° 0 mm 1 mps 767 mmHg 80%
    07:00 +5°C° 0 mm 1 mps 767 mmHg 81%
    08:00 +5°C° 0 mm 1 mps 767 mmHg 80%
    09:00 +6°C° 0 mm 1 mps 767 mmHg 80%
    10:00 +6°C° 0 mm 1 mps 767 mmHg 80%
    11:00 +7°C° 0 mm 1 mps 766 mmHg 77%
    12:00 +8°C° 0 mm 1 mps 766 mmHg 75%
    13:00 +9°C° 0 mm 1 mps 765 mmHg 73%
    14:00 +8°C° 0 mm 1 mps 765 mmHg 76%
    15:00 +8°C° 0 mm 1 mps 765 mmHg 79%
    16:00 +8°C° 0 mm 1 mps 765 mmHg 81%
    17:00 +7°C° 0 mm 1 mps 766 mmHg 83%
    18:00 +7°C° 0 mm 1 mps 766 mmHg 85%
    19:00 +7°C° 0 mm 1 mps 766 mmHg 87%
    20:00 +6°C° 0 mm 1 mps 767 mmHg 87%
    21:00 +6°C° 0 mm 1 mps 767 mmHg 87%
    22:00 +5°C° 0 mm 2 mps 767 mmHg 88%
    23:00 +5°C° 0 mm 2 mps 767 mmHg 88%
    Show more